| time (UTC) | temp F | wind direction | speed MPH | gust MPH | rain 1hr in | rain 24hr in | rain mn in | humidity % | barometer mb |
| 20260506190053 | 73 | 355 | 9.0 | 22.0 | 0.00 | 0.00 | 0.00 | 20 | 992.9 |
| 20260506184559 | 72 | 279 | 10.0 | 19.0 | 0.00 | 0.00 | 0.00 | 21 | 993.1 |
| 20260506183045 | 72 | 325 | 12.0 | 24.0 | 0.00 | 0.00 | 0.00 | 21 | 993.3 |
| 20260506181543 | 70 | 316 | 7.0 | 15.0 | 0.00 | 0.00 | 0.00 | 21 | 993.3 |
| 20260506180040 | 70 | 360 | 6.0 | 22.0 | 0.00 | 0.00 | 0.00 | 24 | 993.5 |
| 20260506174536 | 69 | 355 | 6.0 | 13.0 | 0.00 | 0.00 | 0.00 | 25 | 993.5 |
| 20260506173030 | 68 | 34 | 10.0 | 15.0 | 0.00 | 0.00 | 0.00 | 26 | 993.7 |
| 20260506171538 | 67 | 277 | 3.0 | 19.0 | 0.00 | 0.00 | 0.00 | 28 | 993.9 |
| 20260506170024 | 66 | 288 | 7.0 | 19.0 | 0.00 | 0.00 | 0.00 | 30 | 993.8 |
| 20260506164524 | 65 | 5 | 11.0 | 19.0 | 0.00 | 0.00 | 0.00 | 29 | 993.7 |
| 20260506163023 | 64 | 355 | 4.0 | 15.0 | 0.00 | 0.00 | 0.00 | 32 | 993.7 |
| 20260506161524 | 63 | 333 | 4.0 | 18.0 | 0.00 | 0.00 | 0.00 | 35 | 993.8 |
| 20260506160018 | 62 | 296 | 8.0 | 18.0 | 0.00 | 0.00 | 0.00 | 36 | 993.7 |
| 20260506154520 | 62 | 342 | 11.0 | 20.0 | 0.00 | 0.00 | 0.00 | 37 | 993.7 |
| 20260506153016 | 61 | 343 | 9.0 | 13.0 | 0.00 | 0.00 | 0.00 | 39 | 993.7 |
| 20260506151522 | 60 | 355 | 13.0 | 20.0 | 0.00 | 0.00 | 0.00 | 40 | 993.8 |
| 20260506150119 | 58 | 5 | 9.0 | 14.0 | 0.00 | 0.00 | 0.00 | 43 | 993.8 |
| 20260506144558 | 58 | 350 | 10.0 | 15.0 | 0.00 | 0.00 | 0.00 | 44 | 993.8 |
| 20260506143044 | 57 | 350 | 9.0 | 13.0 | 0.00 | 0.00 | 0.00 | 46 | 993.7 |
| 20260506141541 | 56 | 325 | 10.0 | 15.0 | 0.00 | 0.00 | 0.00 | 47 | 993.8 |
| 20260506140040 | 53 | 334 | 3.0 | 11.0 | 0.00 | 0.00 | 0.00 | 55 | 993.7 |
| 20260506134538 | 49 | 333 | 2.0 | 9.0 | 0.00 | 0.00 | 0.00 | 65 | 993.7 |
| 20260506133036 | 43 | 32 | 1.0 | 4.0 | 0.00 | 0.00 | 0.00 | 82 | 993.6 |
| 20260506131541 | 38 | 30 | 0.0 | 1.0 | 0.00 | 0.00 | 0.00 | 85 | 993.4 |
| 20260506130127 | 36 | 31 | 0.0 | 2.0 | 0.00 | 0.00 | 0.00 | 83 | 993.1 |
| 20260506124522 | 37 | 30 | 0.0 | 1.0 | 0.00 | 0.00 | 0.00 | 82 | 992.9 |
| 20260506123018 | 37 | 355 | 0.0 | 2.0 | 0.00 | 0.00 | 0.00 | 81 | 992.7 |
| 20260506121513 | 37 | 360 | 0.0 | 2.0 | 0.00 | 0.00 | 0.00 | 79 | 992.6 |
| 20260506120009 | 38 | 360 | 0.0 | 1.0 | 0.00 | 0.00 | 0.00 | 77 | 992.4 |
| 20260506114522 | 39 | 360 | 0.0 | 4.0 | 0.00 | 0.00 | 0.00 | 76 | 992.2 |
| 20260506113003 | 40 | 347 | 0.0 | 4.0 | 0.00 | 0.00 | 0.00 | 73 | 992.2 |
| 20260506111531 | 42 | 346 | 0.0 | 5.0 | 0.00 | 0.00 | 0.00 | 70 | 992.0 |
| 20260506110034 | 41 | 322 | 2.0 | 5.0 | 0.00 | 0.00 | 0.00 | 72 | 991.9 |
| 20260506104604 | 43 | 340 | 0.0 | 4.0 | 0.00 | 0.00 | 0.00 | 67 | 991.9 |
| 20260506103055 | 46 | 337 | 0.0 | 4.0 | 0.00 | 0.00 | 0.00 | 63 | 991.9 |
| 20260506101552 | 48 | 49 | 0.0 | 4.0 | 0.00 | 0.00 | 0.00 | 59 | 991.9 |
| 20260506100104 | 50 | 320 | 1.0 | 9.0 | 0.00 | 0.00 | 0.00 | 53 | 991.9 |
| 20260506094550 | 49 | 291 | 0.0 | 5.0 | 0.00 | 0.00 | 0.00 | 56 | 991.9 |
| 20260506093048 | 50 | 281 | 0.0 | 1.0 | 0.00 | 0.00 | 0.00 | 54 | 991.8 |
| 20260506091521 | 50 | 281 | 1.0 | 6.0 | 0.00 | 0.00 | 0.00 | 54 | 992.0 |
| 20260506090017 | 46 | 290 | 0.0 | 6.0 | 0.00 | 0.00 | 0.00 | 60 | 992.1 |
| 20260506084513 | 46 | 360 | 0.0 | 1.0 | 0.00 | 0.00 | 0.00 | 61 | 992.2 |
| 20260506083013 | 48 | 34 | 0.0 | 9.0 | 0.00 | 0.00 | 0.00 | 54 | 992.4 |
| 20260506081512 | 50 | 342 | 0.0 | 10.0 | 0.00 | 0.00 | 0.00 | 53 | 992.4 |
| 20260506073007 | 47 | 360 | 1.0 | 5.0 | 0.00 | 0.00 | 0.00 | 55 | 992.9 |
| 20260506071505 | 47 | 360 | 0.0 | 5.0 | 0.00 | 0.00 | 0.00 | 55 | 992.8 |
| 20260506061528 | 44 | 296 | 0.0 | 4.0 | 0.00 | 0.00 | 0.00 | 60 | 992.9 |
| 20260506044510 | 53 | 30 | 0.0 | 5.0 | 0.00 | 0.00 | 0.00 | 42 | 992.8 |
| 20260506043005 | 51 | 333 | 1.0 | 5.0 | 0.00 | 0.00 | 0.00 | 44 | 992.6 |
| 20260506041532 | 53 | 348 | 0.0 | 2.0 | 0.00 | 0.00 | 0.00 | 42 | 992.0 |
| 20260506040032 | 55 | 347 | 0.0 | 8.0 | 0.00 | 0.00 | 0.00 | 37 | 992.0 |
| 20260506034530 | 53 | 336 | 2.0 | 8.0 | 0.00 | 0.00 | 0.00 | 40 | 992.0 |
| 20260506033033 | 54 | 305 | 0.0 | 1.0 | 0.00 | 0.00 | 0.00 | 46 | 991.8 |
| 20260506031530 | 57 | 305 | 0.0 | 1.0 | 0.00 | 0.00 | 0.00 | 40 | 991.5 |
| 20260506030041 | 58 | 300 | 2.0 | 5.0 | 0.00 | 0.00 | 0.00 | 34 | 991.5 |
| 20260506024554 | 59 | 24 | 4.0 | 10.0 | 0.00 | 0.00 | 0.00 | 32 | 991.3 |
| 20260506023042 | 60 | 346 | 6.0 | 13.0 | 0.00 | 0.00 | 0.00 | 32 | 990.9 |
| 20260506021538 | 60 | 321 | 5.0 | 13.0 | 0.00 | 0.00 | 0.00 | 33 | 990.6 |
| 20260506020035 | 62 | 346 | 7.0 | 14.0 | 0.00 | 0.00 | 0.00 | 31 | 990.8 |
| 20260506014539 | 62 | 303 | 9.0 | 24.0 | 0.00 | 0.00 | 0.00 | 31 | 990.6 |
| 20260506013031 | 63 | 319 | 12.0 | 22.0 | 0.00 | 0.00 | 0.00 | 31 | 990.3 |
| 20260506011534 | 65 | 329 | 16.0 | 28.0 | 0.00 | 0.00 | 0.00 | 30 | 990.1 |
| 20260506010101 | 65 | 323 | 17.0 | 27.0 | 0.00 | 0.00 | 0.00 | 30 | 989.9 |
| 20260506004552 | 66 | 298 | 16.0 | 24.0 | 0.00 | 0.00 | 0.00 | 31 | 989.5 |
| 20260506003023 | 67 | 325 | 15.0 | 29.0 | 0.00 | 0.00 | 0.00 | 28 | 989.6 |
| 20260506001519 | 67 | 330 | 12.0 | 30.0 | 0.00 | 0.00 | 0.00 | 29 | 989.6 |
| 20260506000018 | 67 | 314 | 20.0 | 26.0 | 0.00 | 0.00 | 0.00 | 29 | 989.6 |
| 20260505234514 | 67 | 338 | 16.0 | 24.0 | 0.00 | 0.00 | 0.00 | 29 | 989.5 |
| 20260505233012 | 67 | 342 | 17.0 | 30.0 | 0.00 | 0.00 | 0.00 | 29 | 989.7 |
| 20260505231520 | 67 | 325 | 21.0 | 28.0 | 0.00 | 0.00 | 0.00 | 29 | 989.7 |
| 20260505230012 | 68 | 327 | 14.0 | 24.0 | 0.00 | 0.00 | 0.00 | 29 | 989.4 |
| 20260505224509 | 68 | 321 | 18.0 | 28.0 | 0.00 | 0.00 | 0.00 | 25 | 989.4 |
| 20260505223005 | 68 | 333 | 17.0 | 35.0 | 0.00 | 0.00 | 0.00 | 28 | 989.4 |
| 20260505221504 | 68 | 348 | 16.0 | 26.0 | 0.00 | 0.00 | 0.00 | 26 | 989.6 |
| 20260505220002 | 69 | 16 | 14.0 | 32.0 | 0.00 | 0.00 | 0.00 | 26 | 989.8 |
| 20260505214605 | 70 | 9 | 16.0 | 26.0 | 0.00 | 0.00 | 0.00 | 23 | 989.7 |
| 20260505213109 | 71 | 28 | 10.0 | 28.0 | 0.00 | 0.00 | 0.00 | 21 | 989.6 |
| 20260505211556 | 72 | 54 | 17.0 | 26.0 | 0.00 | 0.00 | 0.00 | 19 | 988.9 |
| 20260505210058 | 74 | 5 | 16.0 | 27.0 | 0.00 | 0.00 | 0.00 | 20 | 989.2 |
| 20260505204554 | 74 | 26 | 16.0 | 29.0 | 0.00 | 0.00 | 0.00 | 20 | 989.3 |
| 20260505203055 | 73 | 24 | 17.0 | 26.0 | 0.00 | 0.00 | 0.00 | 20 | 989.3 |
| 20260505201552 | 75 | 5 | 18.0 | 28.0 | 0.00 | 0.00 | 0.00 | 18 | 989.4 |
| 20260505200049 | 76 | 273 | 11.0 | 21.0 | 0.00 | 0.00 | 0.00 | 17 | 989.3 |
| 20260505194555 | 76 | 278 | 10.0 | 23.0 | 0.00 | 0.00 | 0.00 | 16 | 989.3 |
| 20260505193014 | 75 | 337 | 8.0 | 23.0 | 0.00 | 0.00 | 0.00 | 15 | 989.7 |